Time,TemperatureF,DewpointF,PressureIn,WindDirection,WindDirectionDegrees,WindSpeedMPH,WindSpeedGustMPH,Humidity,HourlyPrecipIn,Conditions,Clouds,dailyrainin,SoftwareType,DateUTC
2013-01-07 00:02:00,33.0,22.0,-100.00,SSE,150,0.0,2.0,63,-99.99,,,0.00,,2013-01-07 07:02:00,
2013-01-07 00:12:00,33.0,22.0,-100.00,South,185,3.0,4.0,64,-99.99,,,0.00,,2013-01-07 07:12:00,
2013-01-07 00:22:00,33.0,22.0,-100.00,South,185,3.0,4.0,64,-99.99,,,0.00,,2013-01-07 07:22:00,
2013-01-07 00:32:00,33.0,22.0,-100.00,South,185,3.0,4.0,64,-99.99,,,0.00,,2013-01-07 07:32:00,
2013-01-07 00:42:00,33.0,22.0,-100.00,South,185,3.0,4.0,64,-99.99,,,0.00,,2013-01-07 07:42:00,
2013-01-07 00:52:00,32.0,22.0,-100.00,East,80,4.0,6.0,66,-99.99,,,0.00,,2013-01-07 07:52:00,
2013-01-07 01:02:00,32.0,22.0,-100.00,East,80,4.0,6.0,66,-99.99,,,0.00,,2013-01-07 08:02:00,
2013-01-07 01:12:00,32.0,23.0,-100.00,SE,125,3.0,5.0,69,-99.99,,,0.00,,2013-01-07 08:12:00,
2013-01-07 01:22:00,32.0,23.0,-100.00,SE,125,3.0,5.0,69,-99.99,,,0.00,,2013-01-07 08:22:00,
2013-01-07 01:32:00,32.0,23.0,-100.00,SE,125,3.0,5.0,69,-99.99,,,0.00,,2013-01-07 08:32:00,
2013-01-07 01:42:00,32.0,23.0,-100.00,SE,125,3.0,5.0,69,-99.99,,,0.00,,2013-01-07 08:42:00,
2013-01-07 01:52:00,32.0,25.0,-100.00,NE,45,4.0,6.0,73,-99.99,,,0.00,,2013-01-07 08:52:00,
2013-01-07 02:02:00,32.0,25.0,-100.00,NE,45,4.0,6.0,73,-99.99,,,0.00,,2013-01-07 09:02:00,
2013-01-07 02:12:00,33.0,25.0,-100.00,East,85,3.0,4.0,73,-99.99,,,0.00,,2013-01-07 09:12:00,
2013-01-07 02:22:00,33.0,25.0,-100.00,East,85,3.0,4.0,73,-99.99,,,0.00,,2013-01-07 09:22:00,
2013-01-07 02:32:00,33.0,25.0,-100.00,East,85,3.0,4.0,73,-99.99,,,0.00,,2013-01-07 09:32:00,
2013-01-07 02:42:00,33.0,25.0,-100.00,East,85,3.0,4.0,73,-99.99,,,0.00,,2013-01-07 09:42:00,
2013-01-07 02:52:00,33.0,26.0,-100.00,NE,55,2.0,6.0,74,-99.99,,,0.00,,2013-01-07 09:52:00,
2013-01-07 03:02:00,33.0,26.0,-100.00,NE,55,2.0,6.0,74,-99.99,,,0.00,,2013-01-07 10:02:00,
2013-01-07 03:12:00,33.0,26.0,-100.00,East,80,2.0,4.0,73,-99.99,,,0.00,,2013-01-07 10:12:00,
2013-01-07 03:22:00,33.0,26.0,-100.00,East,80,2.0,4.0,73,-99.99,,,0.00,,2013-01-07 10:22:00,
2013-01-07 03:32:00,33.0,26.0,-100.00,East,80,2.0,4.0,73,-99.99,,,0.00,,2013-01-07 10:32:00,
2013-01-07 03:42:00,33.0,26.0,-100.00,East,80,2.0,4.0,73,-99.99,,,0.00,,2013-01-07 10:42:00,
2013-01-07 03:52:00,33.0,26.0,-100.00,ESE,115,3.0,4.0,73,-99.99,,,0.00,,2013-01-07 10:52:00,
2013-01-07 04:02:00,33.0,26.0,-100.00,ESE,115,3.0,4.0,73,-99.99,,,0.00,,2013-01-07 11:02:00,
2013-01-07 04:12:00,33.0,26.0,-100.00,East,95,3.0,7.0,75,-99.99,,,0.00,,2013-01-07 11:12:00,
2013-01-07 04:22:00,33.0,26.0,-100.00,East,95,3.0,7.0,75,-99.99,,,0.00,,2013-01-07 11:22:00,
2013-01-07 04:32:00,33.0,26.0,-100.00,East,95,3.0,7.0,75,-99.99,,,0.00,,2013-01-07 11:32:00,
2013-01-07 04:42:00,33.0,26.0,-100.00,East,95,3.0,7.0,75,-99.99,,,0.00,,2013-01-07 11:42:00,
2013-01-07 04:52:00,32.0,27.0,-100.00,ESE,120,4.0,6.0,82,-99.99,,,0.00,,2013-01-07 11:52:00,
2013-01-07 05:02:00,32.0,27.0,-100.00,ESE,120,4.0,6.0,82,-99.99,,,0.00,,2013-01-07 12:02:00,
2013-01-07 05:12:00,31.0,28.0,-100.00,SE,145,4.0,6.0,86,-99.99,,,0.00,,2013-01-07 12:12:00,
2013-01-07 05:22:00,31.0,28.0,-100.00,SE,145,4.0,6.0,86,-99.99,,,0.00,,2013-01-07 12:22:00,
2013-01-07 05:32:00,31.0,28.0,-100.00,SE,145,4.0,6.0,86,-99.99,,,0.00,,2013-01-07 12:32:00,
2013-01-07 05:42:00,31.0,28.0,-100.00,SE,145,4.0,6.0,86,-99.99,,,0.00,,2013-01-07 12:42:00,
2013-01-07 05:52:00,32.0,30.0,-100.00,SE,145,9.0,11.0,90,-99.99,,,0.00,,2013-01-07 12:52:00,
2013-01-07 06:02:00,32.0,30.0,-100.00,SE,145,9.0,11.0,90,-99.99,,,0.00,,2013-01-07 13:02:00,
2013-01-07 06:12:00,32.0,30.0,-100.00,SSE,155,9.0,12.0,93,-99.99,,,0.00,,2013-01-07 13:12:00,
2013-01-07 06:22:00,32.0,30.0,-100.00,SSE,155,9.0,12.0,93,-99.99,,,0.00,,2013-01-07 13:22:00,
2013-01-07 06:33:00,32.0,30.0,-100.00,SSE,155,9.0,12.0,93,-99.99,,,0.00,,2013-01-07 13:33:00,
2013-01-07 06:42:00,32.0,30.0,-100.00,SSE,155,9.0,12.0,93,-99.99,,,0.00,,2013-01-07 13:42:00,
2013-01-07 06:52:00,32.0,31.0,-100.00,SE,140,9.0,14.0,94,-99.99,,,0.00,,2013-01-07 13:52:00,
2013-01-07 07:03:00,32.0,31.0,-100.00,SE,140,9.0,14.0,94,-99.99,,,0.00,,2013-01-07 14:03:00,
2013-01-07 07:12:00,32.0,31.0,-100.00,SSE,160,9.0,16.0,95,-99.99,,,0.00,,2013-01-07 14:12:00,
2013-01-07 07:22:00,32.0,31.0,-100.00,SSE,160,9.0,16.0,95,-99.99,,,0.00,,2013-01-07 14:22:00,
2013-01-07 07:33:00,32.0,31.0,-100.00,SSE,160,9.0,16.0,95,-99.99,,,0.00,,2013-01-07 14:33:00,
2013-01-07 07:42:00,32.0,31.0,-100.00,SSE,160,9.0,16.0,95,-99.99,,,0.00,,2013-01-07 14:42:00,
2013-01-07 07:53:00,32.0,31.0,-100.00,SE,140,8.0,15.0,96,-99.99,,,0.00,,2013-01-07 14:53:00,
2013-01-07 08:03:00,32.0,31.0,-100.00,SE,140,8.0,15.0,96,-99.99,,,0.00,,2013-01-07 15:03:00,
2013-01-07 08:12:00,32.0,31.0,-100.00,SSE,150,10.0,17.0,96,-99.99,,,0.00,,2013-01-07 15:12:00,
2013-01-07 08:22:00,32.0,31.0,-100.00,SSE,150,10.0,17.0,96,-99.99,,,0.00,,2013-01-07 15:22:00,
2013-01-07 08:33:00,32.0,31.0,-100.00,SSE,150,10.0,17.0,96,-99.99,,,0.00,,2013-01-07 15:33:00,
2013-01-07 08:42:00,32.0,31.0,-100.00,SSE,150,10.0,17.0,96,-99.99,,,0.00,,2013-01-07 15:42:00,
2013-01-07 08:53:00,32.0,31.0,-100.00,SSE,150,10.0,16.0,96,-99.99,,,0.00,,2013-01-07 15:53:00,
2013-01-07 09:02:00,32.0,31.0,-100.00,SSE,150,10.0,16.0,96,-99.99,,,0.00,,2013-01-07 16:02:00,
2013-01-07 09:12:00,32.0,31.0,-100.00,SSE,150,10.0,16.0,96,-99.99,,,0.00,,2013-01-07 16:12:00,
2013-01-07 09:20:00,32.0,31.0,-100.00,SSE,155,10.0,17.0,96,-99.99,,,0.00,,2013-01-07 16:20:00,
2013-01-07 09:53:00,32.0,31.0,-100.00,SSE,155,10.0,17.0,96,-99.99,,,0.00,,2013-01-07 16:53:00,
2013-01-07 10:02:00,32.0,31.0,-100.00,SSE,155,10.0,17.0,96,-99.99,,,0.00,,2013-01-07 17:02:00,
2013-01-07 10:12:00,32.0,31.0,-100.00,SSE,155,10.0,17.0,96,-99.99,,,0.00,,2013-01-07 17:12:00,
2013-01-07 10:20:00,33.0,32.0,-100.00,SSE,160,11.0,18.0,96,-99.99,,,0.00,,2013-01-07 17:20:00,
2013-01-07 10:33:00,33.0,32.0,-100.00,SSE,155,12.0,17.0,96,-99.99,,,0.00,,2013-01-07 17:33:00,
2013-01-07 10:42:00,33.0,32.0,-100.00,SSE,155,12.0,17.0,96,-99.99,,,0.00,,2013-01-07 17:42:00,
2013-01-07 10:52:00,33.0,32.0,-100.00,SSE,160,11.0,18.0,96,-99.99,,,0.00,,2013-01-07 17:52:00,
2013-01-07 11:02:00,33.0,32.0,-100.00,SSE,160,11.0,18.0,96,-99.99,,,0.00,,2013-01-07 18:02:00,
2013-01-07 11:12:00,33.0,32.0,-100.00,SSE,160,11.0,18.0,96,-99.99,,,0.00,,2013-01-07 18:12:00,
2013-01-07 11:20:00,34.0,32.0,-100.00,SE,140,8.0,16.0,94,-99.99,,,0.00,,2013-01-07 18:20:00,
2013-01-07 11:32:00,34.0,33.0,-100.00,SE,135,11.0,19.0,95,-99.99,,,0.00,,2013-01-07 18:32:00,
2013-01-07 11:42:00,34.0,33.0,-100.00,SE,135,11.0,19.0,95,-99.99,,,0.00,,2013-01-07 18:42:00,
2013-01-07 11:52:00,34.0,32.0,-100.00,SE,140,8.0,16.0,94,-99.99,,,0.00,,2013-01-07 18:52:00,
2013-01-07 12:03:00,34.0,32.0,-100.00,SE,140,8.0,16.0,94,-99.99,,,0.00,,2013-01-07 19:03:00,
2013-01-07 12:12:00,34.0,32.0,-100.00,SE,140,8.0,16.0,94,-99.99,,,0.00,,2013-01-07 19:12:00,
2013-01-07 12:20:00,34.0,32.0,-100.00,SE,140,6.0,14.0,92,-99.99,,,0.00,,2013-01-07 19:20:00,
2013-01-07 12:33:00,34.0,32.0,-100.00,SSE,150,7.0,15.0,92,-99.99,,,0.00,,2013-01-07 19:33:00,
2013-01-07 12:42:00,34.0,32.0,-100.00,SSE,150,7.0,15.0,92,-99.99,,,0.00,,2013-01-07 19:42:00,
2013-01-07 12:52:00,34.0,32.0,-100.00,SE,140,6.0,14.0,92,-99.99,,,0.00,,2013-01-07 19:52:00,
2013-01-07 13:02:00,34.0,32.0,-100.00,SE,140,6.0,14.0,92,-99.99,,,0.00,,2013-01-07 20:02:00,
2013-01-07 13:12:00,34.0,32.0,-100.00,SE,140,6.0,14.0,92,-99.99,,,0.00,,2013-01-07 20:12:00,
2013-01-07 13:20:00,34.0,31.0,-100.00,SE,140,9.0,18.0,90,-99.99,,,0.00,,2013-01-07 20:20:00,
2013-01-07 13:52:00,34.0,31.0,-100.00,SE,140,9.0,18.0,90,-99.99,,,0.00,,2013-01-07 20:52:00,
2013-01-07 14:02:00,34.0,31.0,-100.00,SE,140,9.0,18.0,90,-99.99,,,0.00,,2013-01-07 21:02:00,
2013-01-07 14:12:00,34.0,31.0,-100.00,SE,140,9.0,18.0,90,-99.99,,,0.00,,2013-01-07 21:12:00,
2013-01-07 14:20:00,33.0,32.0,-100.00,SE,140,11.0,17.0,93,-99.99,,,0.00,,2013-01-07 21:20:00,
2013-01-07 14:32:00,34.0,31.0,-100.00,SE,125,9.0,17.0,91,-99.99,,,0.00,,2013-01-07 21:32:00,
2013-01-07 14:42:00,34.0,31.0,-100.00,SE,125,9.0,17.0,91,-99.99,,,0.00,,2013-01-07 21:42:00,
2013-01-07 14:52:00,33.0,32.0,-100.00,SE,140,11.0,17.0,93,-99.99,,,0.00,,2013-01-07 21:52:00,
2013-01-07 15:02:00,33.0,32.0,-100.00,SE,140,11.0,17.0,93,-99.99,,,0.00,,2013-01-07 22:02:00,
2013-01-07 15:12:00,33.0,32.0,-100.00,SE,140,11.0,17.0,93,-99.99,,,0.00,,2013-01-07 22:12:00,
2013-01-07 15:20:00,33.0,32.0,-100.00,SE,125,9.0,13.0,95,-99.99,,,0.00,,2013-01-07 22:20:00,
2013-01-07 15:52:00,33.0,32.0,-100.00,SE,125,9.0,13.0,95,-99.99,,,0.00,,2013-01-07 22:52:00,
2013-01-07 16:02:00,33.0,32.0,-100.00,SE,125,9.0,13.0,95,-99.99,,,0.00,,2013-01-07 23:02:00,
2013-01-07 16:12:00,33.0,32.0,-100.00,SE,125,9.0,13.0,95,-99.99,,,0.00,,2013-01-07 23:12:00,
2013-01-07 16:20:00,34.0,32.0,-100.00,ESE,120,8.0,12.0,95,-99.99,,,0.00,,2013-01-07 23:20:00,
2013-01-07 16:32:00,34.0,32.0,-100.00,ESE,120,7.0,12.0,95,-99.99,,,0.00,,2013-01-07 23:32:00,
2013-01-07 16:42:00,34.0,32.0,-100.00,ESE,120,7.0,12.0,95,-99.99,,,0.00,,2013-01-07 23:42:00,
2013-01-07 16:52:00,34.0,32.0,-100.00,ESE,120,8.0,12.0,95,-99.99,,,0.00,,2013-01-07 23:52:00,
2013-01-07 17:02:00,34.0,32.0,-100.00,ESE,120,8.0,12.0,95,-99.99,,,0.00,,2013-01-08 00:02:00,
2013-01-07 17:12:00,34.0,32.0,-100.00,ESE,120,8.0,12.0,95,-99.99,,,0.00,,2013-01-08 00:12:00,
2013-01-07 17:32:00,33.0,32.0,-100.00,SE,125,9.0,14.0,96,-99.99,,,0.00,,2013-01-08 00:32:00,
2013-01-07 17:42:00,33.0,32.0,-100.00,SE,125,9.0,14.0,96,-99.99,,,0.00,,2013-01-08 00:42:00,
2013-01-07 17:52:00,33.0,32.0,-100.00,ESE,115,11.0,13.0,96,-99.99,,,0.00,,2013-01-08 00:52:00,
2013-01-07 18:02:00,33.0,32.0,-100.00,ESE,115,11.0,13.0,96,-99.99,,,0.00,,2013-01-08 01:02:00,
2013-01-07 18:12:00,33.0,33.0,-100.00,ESE,120,9.0,17.0,97,-99.99,,,0.00,,2013-01-08 01:12:00,
2013-01-07 18:22:00,33.0,33.0,-100.00,ESE,120,9.0,17.0,97,-99.99,,,0.00,,2013-01-08 01:22:00,
2013-01-07 18:32:00,33.0,33.0,-100.00,ESE,120,9.0,17.0,97,-99.99,,,0.00,,2013-01-08 01:32:00,
2013-01-07 18:42:00,33.0,33.0,-100.00,ESE,120,9.0,17.0,97,-99.99,,,0.00,,2013-01-08 01:42:00,
2013-01-07 18:52:00,34.0,33.0,-100.00,ESE,105,14.0,18.0,97,-99.99,,,0.00,,2013-01-08 01:52:00,
2013-01-07 19:02:00,34.0,33.0,-100.00,ESE,105,14.0,18.0,97,-99.99,,,0.00,,2013-01-08 02:02:00,
2013-01-07 19:12:00,34.0,33.0,-100.00,ESE,110,14.0,16.0,96,-99.99,,,0.00,,2013-01-08 02:12:00,
2013-01-07 19:22:00,34.0,33.0,-100.00,ESE,110,14.0,16.0,96,-99.99,,,0.00,,2013-01-08 02:22:00,
2013-01-07 19:32:00,34.0,33.0,-100.00,ESE,110,14.0,16.0,96,-99.99,,,0.00,,2013-01-08 02:32:00,
2013-01-07 19:42:00,34.0,33.0,-100.00,ESE,110,14.0,16.0,96,-99.99,,,0.00,,2013-01-08 02:42:00,
2013-01-07 19:53:00,35.0,33.0,-100.00,ENE,75,6.0,13.0,95,-99.99,,,0.00,,2013-01-08 02:53:00,
2013-01-07 20:03:00,35.0,33.0,-100.00,ENE,75,6.0,13.0,95,-99.99,,,0.00,,2013-01-08 03:03:00,
2013-01-07 20:12:00,34.0,33.0,-100.00,SSE,150,4.0,12.0,94,-99.99,,,0.00,,2013-01-08 03:12:00,
2013-01-07 20:22:00,34.0,33.0,-100.00,SSE,150,4.0,12.0,94,-99.99,,,0.00,,2013-01-08 03:22:00,
2013-01-07 20:32:00,34.0,33.0,-100.00,SSE,150,4.0,12.0,94,-99.99,,,0.00,,2013-01-08 03:32:00,
2013-01-07 20:42:00,34.0,33.0,-100.00,SSE,150,4.0,12.0,94,-99.99,,,0.00,,2013-01-08 03:42:00,
2013-01-07 20:52:00,34.0,33.0,-100.00,ESE,115,8.0,10.0,94,-99.99,,,0.00,,2013-01-08 03:52:00,
2013-01-07 21:02:00,34.0,33.0,-100.00,ESE,115,8.0,10.0,94,-99.99,,,0.00,,2013-01-08 04:02:00,
2013-01-07 21:12:00,35.0,33.0,-100.00,ESE,105,9.0,12.0,92,-99.99,,,0.00,,2013-01-08 04:12:00,
2013-01-07 21:22:00,35.0,33.0,-100.00,ESE,105,9.0,12.0,92,-99.99,,,0.00,,2013-01-08 04:22:00,
2013-01-07 21:32:00,35.0,33.0,-100.00,ESE,105,9.0,12.0,92,-99.99,,,0.00,,2013-01-08 04:32:00,
2013-01-07 21:42:00,35.0,33.0,-100.00,ESE,105,9.0,12.0,92,-99.99,,,0.00,,2013-01-08 04:42:00,
2013-01-07 21:52:00,35.0,33.0,-100.00,ESE,115,8.0,12.0,91,-99.99,,,0.00,,2013-01-08 04:52:00,
2013-01-07 22:03:00,35.0,33.0,-100.00,ESE,115,8.0,12.0,91,-99.99,,,0.00,,2013-01-08 05:03:00,
2013-01-07 22:12:00,35.0,33.0,-100.00,ESE,115,8.0,12.0,91,-99.99,,,0.00,,2013-01-08 05:12:00,